Weather History for Kaiser, MO

Change the Weather History Date:

Friday, April 5, 2013

  Actual Average Record
Temperature  
Mean Temperature 50 °F -  
Max Temperature 69 °F 62 °F 80 °F (2001)
Min Temperature 30 °F 41 °F 23 °F (2002)
Degree Days  
Heating Degree Days 16    
Moisture  
Dew Point 31 °F    
Average Humidity 49    
Maximum Humidity 86    
Minimum Humidity 25    
Precipitation  
Precipitation 0.00 in - - ()
Sea Level Pressure  
Sea Level Pressure 30.11 in    
Wind  
Wind Speed 2 mph (South)    
Max Wind Speed 10 mph    
Max Gust Speed -    
Visibility 10 miles    
Events      
Averages and records for this station are not official NWS values.
T = Trace of Precipitation, MM = Missing Value Source: NWS Daily Summary

Daily Weather History Graph

Daily Weather History Graph

Search for Another Location

Airport:

Trip Planner

Search our weather history database for the weather conditions in past years. The results will help you decide how hot, cold, wet, or windy it might be!

Date:

Astronomy

Apr. 05, 2013 Rise Set
Actual Time 6:48 AM CDT 7:37 PM CDT
Civil Twilight 6:22 AM CDT 8:04 PM CDT
Nautical Twilight 5:50 AM CDT 8:35 PM CDT
Astronomical Twilight 5:17 AM CDT 9:08 PM CDT
Moon 3:52 AM CDT (4/5) 3:05 PM CDT (4/5)
Length of Visible Light 13h 41m
Length of Day
12h 48m
Waning Crescent, 23% of the Moon is Illuminated
Apr 5
Waning Crescent
Apr 10
New
Apr 18
First Quarter
Apr 25
Full
May 2
Last Quarter

Hourly Weather History & Observations

Time (CDT) Temp. Windchill Dew Point Humidity Pressure Visibility Wind Dir Wind Speed Gust Speed Precip Events Conditions
12:15 AM 37.4 °F - 26.6 °F 65% 30.12 in 10.0 mi Calm Calm - N/A   Clear
12:35 AM 37.4 °F - 26.6 °F 65% 30.12 in 10.0 mi Calm Calm - N/A   Clear
1:15 AM 35.6 °F - 28.4 °F 75% 30.12 in 10.0 mi Calm Calm - N/A   Clear
1:35 AM 35.6 °F - 28.4 °F 75% 30.13 in 10.0 mi Calm Calm - N/A   Clear
1:55 AM 35.6 °F - 26.6 °F 70% 30.13 in 10.0 mi Calm Calm - N/A   Clear
2:15 AM 33.8 °F - 26.6 °F 75% 30.13 in 10.0 mi Calm Calm - N/A   Clear
2:35 AM 33.8 °F - 26.6 °F 75% 30.12 in 10.0 mi Calm Calm - N/A   Clear
2:55 AM 33.8 °F - 26.6 °F 75% 30.12 in 10.0 mi Calm Calm - N/A   Clear
3:15 AM 33.8 °F - 26.6 °F 75% 30.13 in 10.0 mi Calm Calm - N/A   Clear
3:35 AM 33.8 °F - 26.6 °F 75% 30.13 in 10.0 mi Calm Calm - N/A   Clear
3:55 AM 33.8 °F - 26.6 °F 75% 30.14 in 10.0 mi Calm Calm - N/A   Clear
4:15 AM 33.8 °F - 26.6 °F 75% 30.14 in 10.0 mi Calm Calm - N/A   Clear
4:35 AM 32.0 °F - 26.6 °F 80% 30.14 in 10.0 mi Calm Calm - N/A   Clear
4:55 AM 32.0 °F - 26.6 °F 80% 30.14 in 10.0 mi Calm Calm - N/A   Clear
5:15 AM 30.2 °F - 26.6 °F 86% 30.15 in 10.0 mi Calm Calm - N/A   Clear
5:35 AM 30.2 °F - 26.6 °F 86% 30.15 in 10.0 mi Calm Calm - N/A   Clear
5:55 AM 30.2 °F 26.7 °F 26.6 °F 86% 30.15 in 10.0 mi East 3.5 mph - N/A   Clear
6:15 AM 30.2 °F - 26.6 °F 86% 30.15 in 10.0 mi Calm Calm - N/A   Clear
6:35 AM 30.2 °F 26.7 °F 26.6 °F 86% 30.16 in 10.0 mi ENE 3.5 mph - N/A   Clear
6:55 AM 32.0 °F - 26.6 °F 80% 30.16 in 10.0 mi Calm Calm - N/A   Clear
7:15 AM 30.2 °F - 26.6 °F 86% 30.17 in 10.0 mi Calm Calm - N/A   Clear
7:35 AM 32.0 °F - 26.6 °F 80% 30.17 in 10.0 mi Calm Calm - N/A   Clear
7:55 AM 33.8 °F - 28.4 °F 81% 30.17 in 10.0 mi Calm Calm - N/A   Clear
8:15 AM 37.4 °F - 30.2 °F 75% 30.18 in 10.0 mi Calm Calm - N/A   Clear
8:35 AM 41.0 °F - 28.4 °F 61% 30.18 in 10.0 mi Calm Calm - N/A   Clear
8:55 AM 44.6 °F 43.1 °F 28.4 °F 53% 30.18 in 10.0 mi South 3.5 mph - N/A   Clear
9:15 AM 44.6 °F - 30.2 °F 57% 30.19 in 10.0 mi Calm Calm - N/A   Clear
9:35 AM 48.2 °F - 28.4 °F 46% 30.20 in 10.0 mi Calm Calm - N/A   Clear
9:55 AM 50.0 °F - 30.2 °F 47% 30.20 in 10.0 mi Calm Calm - N/A   Clear
10:15 AM 51.8 °F - 30.2 °F 44% 30.21 in 10.0 mi ENE 3.5 mph - N/A   Clear
10:35 AM 53.6 °F - 30.2 °F 41% 30.21 in 10.0 mi Calm Calm - N/A   Clear
10:55 AM 55.4 °F - 30.2 °F 38% 30.21 in 10.0 mi Calm Calm - N/A   Clear
11:15 AM 57.2 °F - 32.0 °F 38% 30.21 in 10.0 mi Calm Calm - N/A   Clear
11:35 AM 59.0 °F - 30.2 °F 34% 30.20 in 10.0 mi Calm Calm - N/A   Clear
11:55 AM 60.8 °F - 30.2 °F 31% 30.19 in 10.0 mi Calm Calm - N/A   Clear
12:15 PM 62.6 °F - 32.0 °F 32% 30.18 in 10.0 mi Calm Calm - N/A   Clear
12:35 PM 64.4 °F - 32.0 °F 30% 30.18 in 10.0 mi WNW 4.6 mph - N/A   Clear
12:55 PM 64.4 °F - 30.2 °F 28% 30.17 in 10.0 mi Calm Calm - N/A   Clear
1:15 PM 64.4 °F - 30.2 °F 28% 30.16 in 10.0 mi West 4.6 mph - N/A   Clear
1:35 PM 64.4 °F - 30.2 °F 28% 30.15 in 10.0 mi SW 3.5 mph - N/A   Clear
1:55 PM 66.2 °F - 33.8 °F 30% 30.14 in 10.0 mi South 5.8 mph - N/A   Clear
2:15 PM 66.2 °F - 32.0 °F 28% 30.13 in 10.0 mi SW 3.5 mph - N/A   Clear
2:35 PM 66.2 °F - 32.0 °F 28% 30.11 in 10.0 mi South 6.9 mph - N/A   Clear
2:55 PM 66.2 °F - 30.2 °F 26% 30.10 in 10.0 mi ESE 5.8 mph - N/A   Clear
3:15 PM 69.8 °F - 33.8 °F 27% 30.09 in 10.0 mi SSW 6.9 mph - N/A   Clear
3:35 PM 69.8 °F - 33.8 °F 27% 30.09 in 10.0 mi SW 8.1 mph - N/A   Clear
3:55 PM 69.8 °F - 32.0 °F 25% 30.08 in 10.0 mi Calm Calm - N/A   Clear
4:15 PM 69.8 °F - 33.8 °F 27% 30.07 in 10.0 mi SSW 8.1 mph - N/A   Clear
4:35 PM 69.8 °F - 33.8 °F 27% 30.06 in 10.0 mi WSW 8.1 mph - N/A   Clear
4:55 PM 69.8 °F - 33.8 °F 27% 30.05 in 10.0 mi SSW 6.9 mph - N/A   Clear
5:15 PM 69.8 °F - 33.8 °F 27% 30.04 in 10.0 mi SSW 9.2 mph - N/A   Clear
5:35 PM 69.8 °F - 33.8 °F 27% 30.04 in 10.0 mi South 10.4 mph - N/A   Clear
5:55 PM 69.8 °F - 33.8 °F 27% 30.04 in 10.0 mi South 5.8 mph - N/A   Clear
6:15 PM 69.8 °F - 33.8 °F 27% 30.04 in 10.0 mi SSE 6.9 mph - N/A   Clear
6:35 PM 69.8 °F - 33.8 °F 27% 30.03 in 10.0 mi South 8.1 mph - N/A   Clear
6:55 PM 68.0 °F - 33.8 °F 28% 30.03 in 10.0 mi SSE 5.8 mph - N/A   Clear
7:15 PM 66.2 °F - 35.6 °F 32% 30.04 in 10.0 mi South 8.1 mph - N/A   Clear
7:35 PM 64.4 °F - 35.6 °F 34% 30.04 in 10.0 mi South 5.8 mph - N/A   Clear
7:55 PM 64.4 °F - 33.8 °F 32% 30.03 in 10.0 mi South 5.8 mph - N/A   Clear
8:15 PM 62.6 °F - 33.8 °F 34% 30.03 in 9.0 mi SSE 3.5 mph - N/A   Clear
8:35 PM 62.6 °F - 33.8 °F 34% 30.02 in 10.0 mi SE 4.6 mph - N/A   Clear
8:55 PM 62.6 °F - 33.8 °F 34% 30.02 in 10.0 mi SSE 5.8 mph - N/A   Clear
9:15 PM 60.8 °F - 33.8 °F 36% 30.02 in 10.0 mi SSE 4.6 mph - N/A   Clear
9:55 PM 59.0 °F - 33.8 °F 39% 30.02 in 10.0 mi South 4.6 mph - N/A   Clear
10:15 PM 59.0 °F - 35.6 °F 42% 30.02 in 10.0 mi South 4.6 mph - N/A   Clear
10:35 PM 59.0 °F - 35.6 °F 42% 30.02 in 10.0 mi SSE 5.8 mph - N/A   Clear
10:55 PM 59.0 °F - 35.6 °F 42% 30.01 in 10.0 mi SSE 5.8 mph - N/A   Clear
11:15 PM 57.2 °F - 35.6 °F 44% 30.00 in 10.0 mi SSE 4.6 mph - N/A   Clear
11:35 PM 57.2 °F - 33.8 °F 41% 30.00 in 10.0 mi South 5.8 mph - N/A   Clear
11:55 PM 57.2 °F - 33.8 °F 41% 29.99 in 10.0 mi South 5.8 mph - N/A   Clear